PDT,Max TemperatureF,Mean TemperatureF,Min TemperatureF,Max Dew PointF,MeanDew PointF,Min DewpointF,Max Humidity, Mean Humidity, Min Humidity, Max Sea Level PressureIn, Mean Sea Level PressureIn, Min Sea Level PressureIn, Max VisibilityMiles, Mean VisibilityMiles, Min VisibilityMiles, Max Wind SpeedMPH, Mean Wind SpeedMPH, Max Gust SpeedMPH,PrecipitationIn, CloudCover, Events, WindDirDegrees
2013-4-1,80,69,58,43,39,34,51,36,21,30.00,29.94,29.89,10,10,10,23,10,30,0.00,2,,322
2013-4-2,88,73,58,45,39,30,48,31,13,29.99,29.93,29.85,10,10,10,18,7,28,0.00,0,,308
2013-4-3,93,76,59,47,37,26,60,35,10,30.00,29.94,29.88,10,10,10,12,3,18,0.00,1,,142
2013-4-4,93,78,63,48,39,30,56,34,12,29.96,29.91,29.83,10,10,10,22,4,33,0.00,1,,323
2013-4-5,85,73,60,49,43,36,51,36,20,29.94,29.87,29.81,10,10,10,23,7,29,0.00,0,,306
2013-4-6,88,74,59,51,47,41,60,41,21,29.93,29.85,29.78,10,10,10,20,7,28,0.00,0,,318
2013-4-7,88,75,61,51,46,37,65,42,19,29.84,29.75,29.63,10,10,10,16,4,22,0.00,1,,312
2013-4-8,73,68,63,48,35,27,56,40,23,29.67,29.53,29.47,10,10,7,25,16,47,0.00,0,,325
2013-4-9,81,70,58,31,20,8,32,20,8,29.94,29.80,29.69,10,10,10,26,11,32,0.00,0,,327
2013-4-10,87,74,60,26,14,-1,21,13,4,30.07,29.97,29.88,10,10,10,28,12,35,0.00,0,,317
2013-4-11,88,73,57,43,32,25,35,23,11,29.91,29.77,29.63,10,10,10,12,4,17,0.00,1,,96
2013-4-12,92,78,63,48,40,30,52,33,13,29.77,29.72,29.66,10,10,10,17,6,22,0.00,1,,96
2013-4-13,92,77,61,49,41,32,52,33,13,29.77,29.69,29.61,10,10,10,13,5,17,0.00,0,,108
2013-4-14,79,70,60,46,44,43,56,43,29,29.69,29.62,29.57,10,10,7,28,10,33,0.00,0,,310
2013-4-15,79,69,58,45,41,34,57,40,23,29.69,29.64,29.61,10,7,2,30,7,40,0.00,3,,316
2013-4-16,74,65,55,35,29,16,47,33,19,29.88,29.77,29.65,10,10,6,32,15,41,0.00,0,,318
2013-4-17,78,67,56,29,13,2,35,20,5,30.10,30.00,29.90,10,10,10,23,13,28,0.00,0,,324
2013-4-18,78,70,61,10,6,1,12,9,5,30.25,30.17,30.10,10,10,10,15,6,20,0.00,0,,281
2013-4-19,87,71,55,25,10,3,14,10,5,30.16,30.05,29.91,10,10,10,12,5,16,0.00,0,,341
2013-4-20,94,78,62,34,23,17,25,16,6,29.93,29.88,29.81,10,10,10,12,4,17,0.00,0,,79
2013-4-21,94,79,64,35,31,25,28,19,9,29.93,29.88,29.81,10,10,10,13,7,20,0.00,0,,42
2013-4-22,96,80,64,43,36,26,42,26,9,29.87,29.78,29.68,10,10,10,21,5,28,0.00,0,,320
2013-4-23,92,78,63,45,26,10,48,27,6,29.89,29.80,29.70,10,10,8,20,7,28,0.00,0,,325
2013-4-24,90,77,64,48,39,17,52,30,7,29.85,29.78,29.71,10,10,10,18,6,23,0.00,1,,335
2013-4-25,83,72,61,47,44,41,56,40,24,29.96,29.86,29.75,10,10,10,24,15,32,0.00,0,,316
2013-4-26,92,76,60,48,41,29,60,36,11,30.08,30.01,29.96,10,10,10,13,4,17,0.00,0,,112
2013-4-27,102,82,62,48,28,5,56,30,3,30.03,29.95,29.84,10,10,10,16,4,22,0.00,0,,281
2013-4-28,106,87,67,43,28,10,40,22,3,29.86,29.77,29.67,10,10,10,20,4,25,0.00,0,,265
2013-4-29,106,87,68,44,34,23,37,21,5,29.73,29.66,29.57,10,10,10,20,3,25,0.00,0,,313
2013-4-30,95,81,67,48,43,32,44,28,12,29.66,29.62,29.57,10,10,10,23,6,28,0.00,1,,311